Regional Weather Roundup
Issued by NWS Kansas City/Pleasant Hill, MO

Home | Current Version | Previous Version | Graphics & Text | Print | Product List | Glossary Off
Versions: 1 2 3 4 5 6 7 8 9 10 11 12 13 14 15 16 17 18 19 20 21 22 23 24 25 26 27 28 29 30 31 32 33 34 35 36 37 38 39 40 41 42 43 44 45 46 47 48 49 50

963
ASUS43 KEAX 240010
RWREAX

WEATHER ROUNDUP FOR EASTERN KANSAS AND NORTHWEST MISSOURI
NATIONAL WEATHER SERVICE KANSAS CITY/PLEASANT HILL MO
700 PM CDT FRI JUN 23 2017

KSZ040-057-103>105-MOZ028-029-037-043-240100-
...KANSAS CITY METROPOLITAN AREA...

CITY           SKY/WX    TMP DP  RH WIND       PRES   REMARKS
K.C. INTL      MOSUNNY   75  54  47 NW15      29.99R
6HR MIN TEMP:  75; 6HR MAX TEMP:  80;

K.C. DOWNTOWN  SUNNY     79  52  38 NW12G22   29.97R
6HR MIN TEMP:  79; 6HR MAX TEMP:  84;

LEES SUMMIT    SUNNY     78  51  38 NW12      29.98R
6HR MIN TEMP:  78; 6HR MAX TEMP:  83; 6HR PCP: TRACE;

OLATHE - IXD   SUNNY     76  53  44 N16       29.99R
6HR MIN TEMP:  76; 6HR MAX TEMP:  81;

OLATHE - OJC   SUNNY     77  51  40 NW12      29.98R
6HR MIN TEMP:  77; 6HR MAX TEMP:  82;

LAWRENCE       SUNNY     77  56  48 NW13      29.99R

$$

MOZ001>008-011>017-020>025-030>033-038>040-044>046-053-054-240100-
...NORTHERN AND CENTRAL MISSOURI...

CITY           SKY/WX    TMP DP  RH WIND       PRES   REMARKS
ST. JOSEPH     PTSUNNY   76  55  48 N16       29.99R
6HR MIN TEMP:  75; 6HR MAX TEMP:  80;

MOSBY          CLEAR     77  50  38 N12G20    29.97R
WARRENSBURG    SUNNY     79  46  31 NW8       29.95R
WHITEMAN AFB   SUNNY     80  51  37 NW12      29.94R
6HR MIN TEMP:  80; 6HR MAX TEMP:  84;

CLINTON        SUNNY     81  54  39 N12       29.95R
SEDALIA        SUNNY     80  54  40 NW9       29.95R
6HR MIN TEMP:  79; 6HR MAX TEMP:  84;

WARSAW         NOT AVBL
CHILLICOTHE      N/A     76  55  48 NW9G17    29.96R
6HR MIN TEMP:  76; 6HR MAX TEMP:  82;

KIRKSVILLE     MOSUNNY   75  54  47 NW9       29.93R
6HR MIN TEMP:  75; 6HR MAX TEMP:  82;


$$

MOZ041-047>049-056>058-063>065-088>090-097-240100-
...EASTERN AND SOUTHERN MISSOURI...

CITY           SKY/WX    TMP DP  RH WIND       PRES   REMARKS
ST. LOUIS INTL PTSUNNY   81  57  43 NW7       29.85R
6HR MIN TEMP:  81; 6HR MAX TEMP:  88;

SPIRIT OF STL  CLOUDY    80  62  54 W5        29.84R
COLUMBIA       SUNNY     81  57  43 NW10      29.91R
JEFFERSON CITY SUNNY     83  53  35 NW8       29.89R
ROLLA          PTSUNNY   79  61  53 NW5       29.90R
OSAGE BEACH    CLOUDY    79  59  50 VRB3      29.93R
SPRINGFIELD    CLOUDY    80  61  52 N8        29.94R
BRANSON        PTSUNNY   75  66  73 N12       29.95R
JOPLIN         SUNNY     83  60  45 N9        29.95R
WEST PLAINS    CLOUDY    72  63  73 N8        29.91S

$$

IAZ060-094-KSZ022-034>040-054-083-096-NEZ052-066-093-240100-
...KANSAS...SOUTHEAST NEBRASKA AND IOWA...

CITY           SKY/WX    TMP DP  RH WIND       PRES   REMARKS
TOPEKA         SUNNY     78  56  46 N6        29.99R
6HR MIN TEMP:  77; 6HR MAX TEMP:  81;

MANHATTAN      MOSUNNY   80  52  37 VRB7      30.01R
EMPORIA        SUNNY     78  48  34 N12G17    30.00S
CHANUTE        SUNNY     81  51  35 N14       29.98R
WICHITA        MOSUNNY   79  49  34 N10       30.01S
OMAHA          PTSUNNY   74  50  42 NW14      29.99R
LINCOLN        MOSUNNY   75  50  41 N20       30.03R
FALLS CITY     SUNNY     74  53  48 N10       30.00R
LAMONI         MOSUNNY   73  53  49 NW12      29.96R
DES MOINES     MOSUNNY   73  50  44 NW24      29.93R

$$





USA.gov is the U.S. government's official web portal to all federal, state and local government web resources and services.